Regional Weather Roundup
Issued by NWS Little Rock, AR

Home | Current Version | Previous Version | Graphics & Text | Print | Product List | Glossary On
Versions: 1 2 3 4 5 6 7 8 9 10 11 12 13 14 15 16 17 18 19 20 21 22 23 24 25 26 27 28 29 30 31
000
ASUS44 KLZK 131305
RWRLZK

WEATHER ROUNDUP FOR ARKANSAS
NATIONAL WEATHER SERVICE LITTLE ROCK AR
700 AM CST WED DEC 13 2017

NOTE: "FAIR" INDICATES FEW OR NO CLOUDS BELOW 12,000 FEET WITH NO
SIGNIFICANT WEATHER AND/OR OBSTRUCTIONS TO VISIBILITY.

ARZ001-003-010-029-131400-
NORTHWEST ARKANSAS

CITY           SKY/WX    TMP DP  RH WIND       PRES   REMARKS
FAYETTEVILLE   CLEAR     38  24  57 SW9       29.90F
FORT SMITH     CLOUDY    29  21  72 NE5       29.98F WCI  24
HARRISON       CLEAR     31  21  66 SE7       29.87F WCI  24
BENTONVILLE    CLEAR     37  21  52 S8        29.89F
ROGERS         CLEAR     40  22  48 SW15      29.87F
SILOAM SPGS    CLEAR     37  22  54 S12       29.89F
HIGHFILL       CLEAR     33  21  61 S7        29.88F WCI  27
SPRINGDALE     CLEAR     36  21  55 S9        29.90F
$$

ARZ004-005-016-131400-
NORTH CENTRAL ARKANSAS

CITY           SKY/WX    TMP DP  RH WIND       PRES   REMARKS
BATESVILLE     CLEAR     37  13  37 SW10      29.98F
FLIPPIN        CLEAR     31  18  58 CALM      29.90F
MTN HOME       CLOUDY    31  17  56 S9        29.88F WCI  23
$$

ARZ040-041-131400-
WEST CENTRAL ARKANSAS

CITY           SKY/WX    TMP DP  RH WIND       PRES   REMARKS
MENA           CLOUDY    32  19  59 W6        30.03R WCI  26
MOUNT IDA      CLOUDY    24  19  81 CALM      29.99F
$$

ARZ009-017-025-026-028-131400-
NORTHEAST ARKANSAS

CITY           SKY/WX    TMP DP  RH WIND       PRES   REMARKS
CORNING        FAIR      30  21  69 S13       29.96F WCI  20
JONESBORO      CLEAR     32  22  66 SW6       29.99F WCI  26
NEWPORT        CLEAR     28  22  78 SW12      30.01F WCI  18
WALNUT RIDGE   CLEAR     28  21  75 S8        29.97F WCI  20
BLYTHEVILLE    CLEAR     27  21  78 SW8       30.00F WCI  19
$$

ARZ022-023-033-042-044-131400-
CENTRAL ARKANSAS

CITY           SKY/WX    TMP DP  RH WIND       PRES   REMARKS
LITTLE ROCK    CLOUDY    27  21  78 CALM      30.04F
N LITTLE ROCK    N/A     36  17  46 SW6       30.05F
JACKSONVILLE   CLOUDY    24  19  81 CALM      30.01F
SEARCY         CLOUDY    26  25  96 SW5       30.03F WCI  20
HOT SPRINGS    CLOUDY    29  22  75 CALM      30.04F
RUSSELLVILLE   CLOUDY    24  20  84 CALM      29.99F
CLINTON        FAIR      21  19  93 CALM      30.01F
$$

ARZ036-131400-
EAST ARKANSAS

CITY           SKY/WX    TMP DP  RH WIND       PRES   REMARKS
WEST MEMPHIS   CLEAR     26  24  92 S8        30.02F WCI  18
$$

ARZ050-053-066-070-073-131400-
SOUTHWEST ARKANSAS

CITY           SKY/WX    TMP DP  RH WIND       PRES   REMARKS
ARKADELPHIA    FAIR      21  18  88 CALM      30.09S
CAMDEN         CLOUDY    25  21  86 CALM      30.09S
TEXARKANA      CLOUDY    32  22  66 S7        30.08S WCI  26
EL DORADO      PTCLDY    27  25  92 S5        30.11S WCI  22
DE QUEEN       PTCLDY    24  22  91 CALM      30.06S
$$

ARZ056-057-069-131400-
SOUTHEAST ARKANSAS

CITY           SKY/WX    TMP DP  RH WIND       PRES   REMARKS
PINE BLUFF     CLOUDY    26  20  77 S6        30.07F WCI  19
STUTTGART      CLEAR     30  24  78 S8        30.05F WCI  22
MONTICELLO     CLOUDY    28  23  81 W3        30.09S

$$






USA.gov is the U.S. government's official web portal to all federal, state and local government web resources and services.